Location: *
(51.5000°N, 0.1100°W)
Time: 20:23:23
(UTC+00:00)

H-2A R/B - Pass Details

Date: 25 May 2024
Orbit: 553 x 572 km, 98.1° (Epoch: 16 June)

Event Time Altitude Azimuth Distance (km) Brightness Sun altitude
Rises 02:10:11 0° 12° (NNE) 2,759 8.4 -11.9°
Reaches altitude 10° 02:12:20 10° 11° (N) 1,855 7.2 -11.7°
Maximum altitude 02:16:19 72° 288° (WNW) 591 3.4 -11.4°
Enters shadow 02:19:25 16° 205° (SSW) 1,486 4.9 -11.1°
